Weather History for London, United Kingdom

Change the Weather History Date:

Saturday, November 17, 2012

  Actual Average Record
Temperature  
Mean Temperature 49 °F -  
Max Temperature 54 °F 47 °F 59 °F (1997)
Min Temperature 44 °F 37 °F 30 °F (2005)
Degree Days  
Heating Degree Days 16    
Moisture  
Dew Point 47 °F    
Average Humidity 85    
Maximum Humidity 94    
Minimum Humidity 71    
Precipitation  
Precipitation 0.00 in - - ()
Sea Level Pressure  
Sea Level Pressure 29.76 in    
Wind  
Wind Speed 6 mph ()    
Max Wind Speed 14 mph    
Max Gust Speed -    
Visibility 5.9 miles    
Events Rain    
Averages and records for this station are not official NWS values.
T = Trace of Precipitation, MM = Missing Value Source: Averaged Metar Reports

Daily Weather History Graph

Daily Weather History Graph

Search for Another Location

Airport:

Trip Planner

Search our weather history database for the weather conditions in past years. The results will help you decide how hot, cold, wet, or windy it might be!

Date:

Astronomy

Nov. 17, 2012 Rise Set
Actual Time 7:23 AM GMT 4:09 PM GMT
Civil Twilight 6:46 AM GMT 4:46 PM GMT
Nautical Twilight 6:05 AM GMT 5:27 PM GMT
Astronomical Twilight 5:26 AM GMT 6:07 PM GMT
Moon 10:58 AM GMT (11/17) 8:01 PM GMT (11/17)
Length of Visible Light 10h 00m
Length of Day
8h 45m
Waxing Crescent, 18% of the Moon is Illuminated
Nov 17
Waxing Crescent
Nov 20
First Quarter
Nov 28
Full
Dec 6
Last Quarter
Dec 13
New

Hourly Weather History & Observations

Time (GMT) Temp. Windchill Dew Point Humidity Pressure Visibility Wind Dir Wind Speed Gust Speed Precip Events Conditions
12:20 AM 50.0 °F - 48.2 °F 94% 29.74 in 3.1 mi SE 4.6 mph - N/A   Mostly Cloudy
12:50 AM 50.0 °F - 48.2 °F 94% 29.74 in 3.1 mi SE 5.8 mph - N/A   Mostly Cloudy
1:20 AM 50.0 °F - 48.2 °F 94% 29.74 in 3.1 mi SSE 4.6 mph - N/A   Mostly Cloudy
1:50 AM 51.8 °F - 50.0 °F 94% 29.74 in 3.1 mi SSE 3.5 mph - N/A   Mostly Cloudy
2:20 AM 51.8 °F - 50.0 °F 94% 29.71 in - South 4.6 mph - N/A   Haze
2:50 AM 53 °F - 51 °F 92% 29.72 in 3 mi South 8.1 mph - -   Mist
2:50 AM 53.6 °F - 51.8 °F 94% 29.71 in - South 8.1 mph - N/A   Haze
3:20 AM 53.6 °F - 51.8 °F 94% 29.71 in 1.5 mi South 9.2 mph - N/A   Overcast
3:50 AM 53.6 °F - 51.8 °F 94% 29.68 in 1.0 mi South 8.1 mph - N/A   Mostly Cloudy
4:20 AM 53.6 °F - 51.8 °F 94% 29.68 in 1.4 mi South 6.9 mph - N/A   Mostly Cloudy
4:50 AM 53.6 °F - 51.8 °F 94% 29.68 in - SSW 9.2 mph - N/A   Mostly Cloudy
5:20 AM 53.6 °F - 51.8 °F 94% 29.68 in - SSW 8.1 mph - N/A   Mostly Cloudy
5:50 AM 54 °F - 52 °F 92% 29.69 in 4 mi South 9.2 mph - - Rain Drizzle
5:50 AM 53.6 °F - 51.8 °F 94% 29.68 in - South 8.1 mph - N/A   Scattered Clouds
6:20 AM 53.6 °F - 51.8 °F 94% 29.68 in 3.1 mi SSW 9.2 mph - N/A   Scattered Clouds
6:50 AM 53.6 °F - 51.8 °F 94% 29.68 in 2.8 mi SSW 9.2 mph - N/A   Scattered Clouds
7:20 AM 53.6 °F - 51.8 °F 94% 29.68 in 2.8 mi SSW 9.2 mph - N/A   Scattered Clouds
7:50 AM 53.6 °F - 51.8 °F 94% 29.71 in - SSW 9.2 mph - N/A   Scattered Clouds
8:20 AM 53.6 °F - 51.8 °F 94% 29.71 in - SSW 8.1 mph - N/A   Scattered Clouds
8:50 AM 54 °F - 53 °F 93% 29.71 in 6 mi SSW 9.2 mph - - Rain Drizzle
8:50 AM 53.6 °F - 51.8 °F 94% 29.71 in - SW 6.9 mph - N/A   Scattered Clouds
9:20 AM 53.6 °F - 51.8 °F 94% 29.71 in 6.2 mi West 13.8 mph - N/A   Scattered Clouds
9:50 AM 51.8 °F - 50.0 °F 94% 29.71 in 6.2 mi WNW 9.2 mph - N/A   Mostly Cloudy
10:20 AM 50.0 °F - 48.2 °F 94% 29.74 in 6.2 mi WNW 8.1 mph - N/A   Mostly Cloudy
10:50 AM 50.0 °F - 48.2 °F 94% 29.74 in 6.2 mi WNW 6.9 mph - N/A   Scattered Clouds
11:20 AM 51.8 °F - 46.4 °F 82% 29.74 in 6.2 mi WNW 6.9 mph - N/A   Scattered Clouds
11:50 AM 52 °F - 45 °F 71% 29.75 in 25 mi WNW 9.2 mph - -   Mostly Cloudy
11:50 AM 51.8 °F - 46.4 °F 82% 29.74 in 6.2 mi NW 8.1 mph - N/A   Mostly Cloudy
12:20 PM 51.8 °F - 44.6 °F 76% 29.74 in 6.2 mi NW 8.1 mph - N/A   Scattered Clouds
12:50 PM 51.8 °F - 44.6 °F 76% 29.74 in 6.2 mi WNW 8.1 mph - N/A   Scattered Clouds
1:20 PM 51.8 °F - 44.6 °F 76% 29.74 in 6.2 mi WNW 9.2 mph - N/A   Scattered Clouds
1:50 PM 51.8 °F - 44.6 °F 76% 29.77 in 6.2 mi NW 8.1 mph - N/A   Mostly Cloudy
2:20 PM 51.8 °F - 44.6 °F 76% 29.77 in 6.2 mi WNW 8.1 mph - N/A   Scattered Clouds
2:50 PM 50 °F - 44 °F 72% 29.77 in 19 mi NW 6.9 mph - -   Overcast
2:50 PM 50.0 °F - 42.8 °F 76% 29.77 in 6.2 mi NW 6.9 mph - N/A   Mostly Cloudy
3:20 PM 50.0 °F - 42.8 °F 76% 29.77 in 6.2 mi Variable 2.3 mph - N/A   Scattered Clouds
3:50 PM 50.0 °F - 42.8 °F 76% 29.77 in 6.2 mi WNW 4.6 mph - N/A   Partly Cloudy
4:20 PM 50.0 °F - 42.8 °F 76% 29.77 in 6.2 mi WNW 2.3 mph - N/A   Partly Cloudy
4:50 PM 50.0 °F - 42.8 °F 76% 29.77 in 6.2 mi Variable 2.3 mph - N/A   Partly Cloudy
5:20 PM 50.0 °F - 44.6 °F 82% 29.80 in 6.2 mi NW 3.5 mph - N/A   Scattered Clouds
5:50 PM 49 °F - 44 °F 78% 29.80 in 15 mi NW 4.6 mph - - Rain Light Rain Showers
5:50 PM 50.0 °F - 44.6 °F 82% 29.80 in 6.2 mi NW 5.8 mph - N/A   Scattered Clouds
6:20 PM 50.0 °F - 42.8 °F 76% 29.80 in 6.2 mi NW 4.6 mph - N/A   Scattered Clouds
6:50 PM 50.0 °F - 42.8 °F 76% 29.83 in 6.2 mi Variable 3.5 mph - N/A   Mostly Cloudy
7:20 PM 50.0 °F - 42.8 °F 76% 29.83 in 6.2 mi NW 4.6 mph - N/A   Mostly Cloudy
7:50 PM 50.0 °F - 42.8 °F 76% 29.83 in - WNW 3.5 mph - N/A   Clear
8:20 PM 48.2 °F - 42.8 °F 82% 29.83 in - NW 3.5 mph - N/A   Clear
8:50 PM 47 °F - 42 °F 79% 29.85 in 13 mi NW 3.5 mph - -   Scattered Clouds
8:50 PM 48.2 °F - 41.0 °F 76% 29.86 in 6.2 mi Variable 2.3 mph - N/A   Partly Cloudy
9:20 PM 48.2 °F - 42.8 °F 82% 29.86 in 6.2 mi NW 3.5 mph - N/A   Partly Cloudy
9:50 PM 48.2 °F - 41.0 °F 76% 29.86 in 6.2 mi NW 3.5 mph - N/A   Partly Cloudy
10:20 PM 48.2 °F - 41.0 °F 76% 29.86 in 6.2 mi WNW 4.6 mph - N/A   Partly Cloudy
10:50 PM 46.4 °F 44.3 °F 39.2 °F 76% 29.86 in - WNW 4.6 mph - N/A   Clear
11:20 PM 44.6 °F 42.2 °F 39.2 °F 81% 29.89 in - WNW 4.6 mph - N/A   Clear
11:50 PM 44.6 °F 42.2 °F 39.2 °F 81% 29.89 in 6.2 mi WNW 4.6 mph - N/A   Partly Cloudy